Time,TemperatureF,DewpointF,PressureIn,WindDirection,WindDirectionDegrees,WindSpeedMPH,WindSpeedGustMPH,Humidity,HourlyPrecipIn,Conditions,Clouds,dailyrainin,SoftwareType,DateUTC
2013-08-15 00:01:00,57.0,49.9,30.19,NE,45,1.2,0.0,77,0.00,SCT,SKC,0.00,WeatherDisplay:10.37,2013-08-15 04:01:00,
2013-08-15 00:06:00,56.7,49.5,30.19,NE,45,1.2,0.0,77,0.00,SCT,SKC,0.00,WeatherDisplay:10.37,2013-08-15 04:06:00,
2013-08-15 00:11:00,56.3,49.5,30.19,NE,45,0.0,0.0,78,0.00,FEW,SKC,0.00,WeatherDisplay:10.37,2013-08-15 04:11:00,
2013-08-15 00:16:00,56.1,49.4,30.19,NE,45,1.2,0.0,78,0.00,FEW,SKC,0.00,WeatherDisplay:10.37,2013-08-15 04:16:00,
2013-08-15 00:21:00,55.9,49.2,30.20,NE,45,0.0,0.0,78,0.00,FEW,SKC,0.00,WeatherDisplay:10.37,2013-08-15 04:21:00,
2013-08-15 00:26:00,55.8,49.3,30.20,NE,45,0.0,0.0,79,0.00,FEW,SKC,0.00,WeatherDisplay:10.37,2013-08-15 04:26:00,
2013-08-15 00:31:00,55.8,49.3,30.20,NE,45,0.0,0.0,79,0.00,FEW,SKC,0.00,WeatherDisplay:10.37,2013-08-15 04:31:00,
2013-08-15 00:36:00,55.8,49.3,30.20,NE,45,0.0,0.0,79,0.00,FEW,SKC,0.00,WeatherDisplay:10.37,2013-08-15 04:36:00,
2013-08-15 00:41:00,55.6,49.2,30.20,NE,45,0.0,0.0,79,0.00,FEW,SKC,0.00,WeatherDisplay:10.37,2013-08-15 04:41:00,
2013-08-15 00:46:00,55.6,49.2,30.20,NE,45,0.0,0.0,79,0.00,FEW,SKC,0.00,WeatherDisplay:10.37,2013-08-15 04:46:00,
2013-08-15 00:51:00,55.4,49.0,30.20,NE,45,0.0,0.0,79,0.00,FEW,SKC,0.00,WeatherDisplay:10.37,2013-08-15 04:51:00,
2013-08-15 00:56:00,55.4,49.0,30.20,NE,45,0.0,0.0,79,0.00,FEW,SKC,0.00,WeatherDisplay:10.37,2013-08-15 04:56:00,
2013-08-15 01:01:00,55.2,49.2,30.20,NE,45,0.0,0.0,80,0.00,FEW,SKC,0.00,WeatherDisplay:10.37,2013-08-15 05:01:00,
2013-08-15 01:06:00,55.2,49.2,30.20,NE,45,0.0,0.0,80,0.00,FEW,SKC,0.00,WeatherDisplay:10.37,2013-08-15 05:06:00,
2013-08-15 01:11:00,55.0,49.0,30.20,NE,45,0.0,0.0,80,0.00,FEW,SKC,0.00,WeatherDisplay:10.37,2013-08-15 05:11:00,
2013-08-15 01:16:00,54.9,49.1,30.20,NE,45,0.0,0.0,81,0.00,FEW,SKC,0.00,WeatherDisplay:10.37,2013-08-15 05:16:00,
2013-08-15 01:21:00,54.7,49.0,30.20,NE,45,0.0,0.0,81,0.00,FEW,SKC,0.00,WeatherDisplay:10.37,2013-08-15 05:21:00,
2013-08-15 01:26:00,54.7,49.0,30.20,NE,45,0.0,0.0,81,0.00,FEW,SKC,0.00,WeatherDisplay:10.37,2013-08-15 05:26:00,
2013-08-15 01:31:00,54.5,48.8,30.20,NE,45,0.0,0.0,81,0.00,FEW,SKC,0.00,WeatherDisplay:10.37,2013-08-15 05:31:00,
2013-08-15 01:36:00,54.5,48.8,30.20,NE,45,0.0,0.0,81,0.00,FEW,SKC,0.00,WeatherDisplay:10.37,2013-08-15 05:36:00,
2013-08-15 01:41:00,54.5,48.8,30.19,NE,45,0.0,0.0,81,0.00,FEW,SKC,0.00,WeatherDisplay:10.37,2013-08-15 05:41:00,
2013-08-15 01:46:00,54.3,48.6,30.19,NE,45,0.0,0.0,81,0.00,FEW,SKC,0.00,WeatherDisplay:10.37,2013-08-15 05:46:00,
2013-08-15 01:51:00,54.3,48.6,30.20,NE,45,0.0,0.0,81,0.00,FEW,SKC,0.00,WeatherDisplay:10.37,2013-08-15 05:51:00,
2013-08-15 01:56:00,54.1,48.4,30.20,NE,45,0.0,0.0,81,0.00,FEW,SKC,0.00,WeatherDisplay:10.37,2013-08-15 05:56:00,
2013-08-15 02:01:00,53.8,48.1,30.19,NE,45,0.0,0.0,81,0.00,FEW,SKC,0.00,WeatherDisplay:10.37,2013-08-15 06:01:00,
2013-08-15 02:06:00,53.6,47.9,30.19,NE,45,0.0,0.0,81,0.00,FEW,SKC,0.00,WeatherDisplay:10.37,2013-08-15 06:06:00,
2013-08-15 02:11:00,53.6,47.9,30.19,NE,45,0.0,0.0,81,0.00,CLR,SKC,0.00,WeatherDisplay:10.37,2013-08-15 06:11:00,
2013-08-15 02:16:00,53.4,48.4,30.19,NE,45,0.0,0.0,83,0.00,CLR,SKC,0.00,WeatherDisplay:10.37,2013-08-15 06:16:00,
2013-08-15 02:21:00,53.2,48.2,30.19,NE,45,0.0,0.0,83,0.00,CLR,SKC,0.00,WeatherDisplay:10.37,2013-08-15 06:21:00,
2013-08-15 02:26:00,53.2,48.2,30.19,NE,45,0.0,0.0,83,0.00,CLR,SKC,0.00,WeatherDisplay:10.37,2013-08-15 06:26:00,
2013-08-15 02:31:00,53.2,48.2,30.19,NE,45,0.0,0.0,83,0.00,CLR,SKC,0.00,WeatherDisplay:10.37,2013-08-15 06:31:00,
2013-08-15 02:36:00,52.9,47.9,30.19,NE,45,0.0,0.0,83,0.00,CLR,SKC,0.00,WeatherDisplay:10.37,2013-08-15 06:36:00,
2013-08-15 02:41:00,52.9,47.9,30.19,NE,45,0.0,0.0,83,0.00,CLR,SKC,0.00,WeatherDisplay:10.37,2013-08-15 06:41:00,
2013-08-15 02:46:00,52.9,47.9,30.19,NE,45,0.0,0.0,83,0.00,CLR,SKC,0.00,WeatherDisplay:10.37,2013-08-15 06:46:00,
2013-08-15 02:51:00,52.9,47.9,30.19,NE,45,0.0,0.0,83,0.00,CLR,SKC,0.00,WeatherDisplay:10.37,2013-08-15 06:51:00,
2013-08-15 02:56:00,52.9,47.9,30.19,NE,45,0.0,0.0,83,0.00,CLR,SKC,0.00,WeatherDisplay:10.37,2013-08-15 06:56:00,
2013-08-15 03:01:00,52.7,47.7,30.19,NE,45,0.0,0.0,83,0.00,CLR,SKC,0.00,WeatherDisplay:10.37,2013-08-15 07:01:00,
2013-08-15 03:06:00,52.7,48.0,30.19,NE,45,0.0,0.0,84,0.00,CLR,SKC,0.00,WeatherDisplay:10.37,2013-08-15 07:06:00,
2013-08-15 03:11:00,52.5,47.8,30.20,NE,45,0.0,0.0,84,0.00,CLR,SKC,0.00,WeatherDisplay:10.37,2013-08-15 07:11:00,
2013-08-15 03:16:00,52.3,47.6,30.20,NE,45,0.0,0.0,84,0.00,CLR,SKC,0.00,WeatherDisplay:10.37,2013-08-15 07:16:00,
2013-08-15 03:21:00,52.3,47.6,30.19,NE,45,0.0,0.0,84,0.00,CLR,SKC,0.00,WeatherDisplay:10.37,2013-08-15 07:21:00,
2013-08-15 03:26:00,52.3,47.6,30.19,NE,45,0.0,0.0,84,0.00,CLR,SKC,0.00,WeatherDisplay:10.37,2013-08-15 07:26:00,
2013-08-15 03:31:00,52.3,47.6,30.19,NE,45,0.0,0.0,84,0.00,CLR,SKC,0.00,WeatherDisplay:10.37,2013-08-15 07:31:00,
2013-08-15 08:44:00,62.2,51.1,30.23,SSW,202,4.6,4.6,67,0.00,CLR,SKC,0.00,WeatherDisplay:10.37,2013-08-15 12:44:00,
2013-08-15 08:49:00,62.1,51.0,30.23,South,180,5.8,5.8,67,0.00,CLR,SKC,0.00,WeatherDisplay:10.37,2013-08-15 12:49:00,
2013-08-15 08:54:00,62.4,51.7,30.23,SW,225,5.8,5.8,68,0.00,BKN,SKC,0.00,WeatherDisplay:10.37,2013-08-15 12:54:00,
2013-08-15 08:59:00,63.0,51.8,30.24,SW,225,4.6,0.0,67,0.00,BKN,SKC,0.00,WeatherDisplay:10.37,2013-08-15 12:59:00,
2013-08-15 09:04:00,63.5,52.3,30.23,North,10,3.5,0.0,67,0.00,BKN,SKC,0.00,WeatherDisplay:10.37,2013-08-15 13:04:00,
2013-08-15 09:09:00,63.7,52.9,30.23,SW,225,2.3,2.3,68,0.00,BKN,SKC,0.00,WeatherDisplay:10.37,2013-08-15 13:09:00,
2013-08-15 09:15:00,64.2,53.8,30.23,South,180,2.3,2.3,69,0.00,BKN,SKC,0.00,WeatherDisplay:10.37,2013-08-15 13:15:00,
2013-08-15 09:20:00,64.4,53.2,30.23,NW,315,3.5,3.5,67,0.00,BKN,SKC,0.00,WeatherDisplay:10.37,2013-08-15 13:20:00,
2013-08-15 09:25:00,64.8,53.5,30.23,SW,225,5.8,5.8,67,0.00,BKN,SKC,0.00,WeatherDisplay:10.37,2013-08-15 13:25:00,
2013-08-15 09:30:00,65.1,53.9,30.23,NE,45,2.3,2.3,67,0.00,BKN,SKC,0.00,WeatherDisplay:10.37,2013-08-15 13:30:00,
2013-08-15 09:35:00,65.1,54.3,30.23,SE,135,1.2,1.2,68,0.00,BKN,SKC,0.00,WeatherDisplay:10.37,2013-08-15 13:35:00,
2013-08-15 09:40:00,65.7,54.8,30.23,West,270,4.6,4.6,68,0.00,BKN,SKC,0.00,WeatherDisplay:10.37,2013-08-15 13:40:00,
2013-08-15 09:45:00,66.6,55.3,30.23,South,180,1.2,3.1,67,0.00,BKN,SKC,0.00,WeatherDisplay:10.37,2013-08-15 13:45:00,
2013-08-15 09:50:00,67.5,55.3,30.23,NW,315,5.8,5.8,65,0.00,BKN,SKC,0.00,WeatherDisplay:10.37,2013-08-15 13:50:00,
2013-08-15 09:55:00,68.2,55.1,30.23,NW,315,1.2,1.2,63,0.00,BKN,SKC,0.00,WeatherDisplay:10.37,2013-08-15 13:55:00,
2013-08-15 10:00:00,68.7,55.6,30.23,SW,225,2.3,2.3,63,0.00,BKN,SKC,0.00,WeatherDisplay:10.37,2013-08-15 14:00:00,
2013-08-15 10:05:00,68.9,55.3,30.23,SW,225,5.8,5.8,62,0.00,BKN,SKC,0.00,WeatherDisplay:10.37,2013-08-15 14:05:00,
2013-08-15 10:10:00,69.4,55.9,30.23,SE,135,5.8,5.8,62,0.00,BKN,SKC,0.00,WeatherDisplay:10.37,2013-08-15 14:10:00,
2013-08-15 10:15:00,69.6,56.0,30.23,North,0,2.3,3.1,62,0.00,SCT,SKC,0.00,WeatherDisplay:10.37,2013-08-15 14:15:00,
2013-08-15 10:20:00,69.1,54.1,30.23,NE,45,5.8,0.0,59,0.00,SCT,SKC,0.00,WeatherDisplay:10.37,2013-08-15 14:20:00,
2013-08-15 10:25:00,69.3,54.3,30.23,NW,315,2.3,3.8,59,0.00,SCT,SKC,0.00,WeatherDisplay:10.37,2013-08-15 14:25:00,
2013-08-15 10:30:00,69.6,55.6,30.23,SE,135,4.6,4.6,61,0.00,SCT,SKC,0.00,WeatherDisplay:10.37,2013-08-15 14:30:00,
2013-08-15 10:35:00,70.0,55.0,30.23,North,0,5.8,5.8,59,0.00,SCT,SKC,0.00,WeatherDisplay:10.37,2013-08-15 14:35:00,
2013-08-15 10:40:00,70.0,54.0,30.23,NW,315,3.5,3.5,57,0.00,SCT,SKC,0.00,WeatherDisplay:10.37,2013-08-15 14:40:00,
2013-08-15 10:45:00,70.7,55.2,30.23,NW,315,2.3,2.3,58,0.00,SCT,SKC,0.00,WeatherDisplay:10.37,2013-08-15 14:45:00,
2013-08-15 10:51:00,70.7,53.7,30.22,NW,315,5.8,5.8,55,0.00,SCT,SKC,0.00,WeatherDisplay:10.37,2013-08-15 14:51:00,
2013-08-15 10:56:00,70.3,52.9,30.23,North,0,3.5,3.5,54,0.00,SCT,SKC,0.00,WeatherDisplay:10.37,2013-08-15 14:56:00,
2013-08-15 11:01:00,70.7,53.7,30.23,North,0,2.3,2.3,55,0.00,SCT,SKC,0.00,WeatherDisplay:10.37,2013-08-15 15:01:00,
2013-08-15 11:06:00,70.9,52.4,30.23,NW,315,3.5,3.5,52,0.00,SCT,SKC,0.00,WeatherDisplay:10.37,2013-08-15 15:06:00,
2013-08-15 11:11:00,71.4,52.9,30.23,NW,315,3.5,3.5,52,0.00,SCT,SKC,0.00,WeatherDisplay:10.37,2013-08-15 15:11:00,
2013-08-15 11:16:00,72.0,52.8,30.22,South,180,2.3,2.3,51,0.00,SCT,SKC,0.00,WeatherDisplay:10.37,2013-08-15 15:16:00,
2013-08-15 11:22:00,72.3,52.6,30.22,North,0,3.5,3.5,50,0.00,SCT,SKC,0.00,WeatherDisplay:10.37,2013-08-15 15:22:00,
2013-08-15 11:27:00,72.9,52.0,30.22,SW,225,5.8,5.8,48,0.00,SCT,SKC,0.00,WeatherDisplay:10.37,2013-08-15 15:27:00,
2013-08-15 11:32:00,72.7,51.3,30.22,NW,315,3.5,3.5,47,0.00,SCT,SKC,0.00,WeatherDisplay:10.37,2013-08-15 15:32:00,
2013-08-15 11:37:00,72.5,52.2,30.22,East,90,3.5,3.5,49,0.00,SCT,SKC,0.00,WeatherDisplay:10.37,2013-08-15 15:37:00,
2013-08-15 11:42:00,73.0,51.6,30.22,NW,315,2.3,2.3,47,0.00,SCT,SKC,0.00,WeatherDisplay:10.37,2013-08-15 15:42:00,
2013-08-15 11:47:00,73.8,52.3,30.22,NW,315,3.5,3.5,47,0.00,SCT,SKC,0.00,WeatherDisplay:10.37,2013-08-15 15:47:00,
2013-08-15 11:52:00,74.3,52.2,30.22,NW,315,6.9,6.9,46,0.00,SCT,SKC,0.00,WeatherDisplay:10.37,2013-08-15 15:52:00,
2013-08-15 11:57:00,74.5,52.3,30.22,North,0,5.8,5.8,46,0.00,SCT,SKC,0.00,WeatherDisplay:10.37,2013-08-15 15:57:00,
2013-08-15 12:02:00,73.4,51.4,30.22,SW,225,4.6,4.6,46,0.00,SCT,SKC,0.00,WeatherDisplay:10.37,2013-08-15 16:02:00,
2013-08-15 12:07:00,73.2,52.3,30.22,NW,315,2.3,2.3,48,0.00,SCT,SKC,0.00,WeatherDisplay:10.37,2013-08-15 16:07:00,
2013-08-15 12:12:00,73.6,52.1,30.22,SW,225,4.6,4.6,47,0.00,SCT,SKC,0.00,WeatherDisplay:10.37,2013-08-15 16:12:00,
2013-08-15 12:17:00,74.7,52.5,30.22,SW,225,13.7,13.7,46,0.00,SCT,SKC,0.00,WeatherDisplay:10.37,2013-08-15 16:17:00,
2013-08-15 12:22:00,75.2,51.8,30.22,South,180,11.5,11.5,44,0.00,SCT,SKC,0.00,WeatherDisplay:10.37,2013-08-15 16:22:00,
2013-08-15 12:27:00,76.3,53.4,30.21,West,270,9.2,9.2,45,0.00,SCT,SKC,0.00,WeatherDisplay:10.37,2013-08-15 16:27:00,
2013-08-15 12:33:00,76.8,53.3,30.22,South,180,9.2,9.2,44,0.00,SCT,SKC,0.00,WeatherDisplay:10.37,2013-08-15 16:33:00,
2013-08-15 12:38:00,76.5,52.9,30.21,South,180,5.8,5.8,44,0.00,SCT,SKC,0.00,WeatherDisplay:10.37,2013-08-15 16:38:00,
2013-08-15 12:43:00,75.4,51.9,30.21,SW,225,8.1,8.1,44,0.00,SCT,SKC,0.00,WeatherDisplay:10.37,2013-08-15 16:43:00,
2013-08-15 12:48:00,76.3,54.6,30.21,South,180,5.8,5.8,47,0.00,SCT,SKC,0.00,WeatherDisplay:10.37,2013-08-15 16:48:00,
2013-08-15 12:53:00,76.1,53.2,30.21,West,270,6.9,6.9,45,0.00,SCT,SKC,0.00,WeatherDisplay:10.37,2013-08-15 16:53:00,
2013-08-15 12:58:00,75.7,53.5,30.21,South,180,8.1,8.1,46,0.00,SCT,SKC,0.00,WeatherDisplay:10.37,2013-08-15 16:58:00,
2013-08-15 13:03:00,75.7,52.9,30.21,West,270,8.1,8.1,45,0.00,BKN,SKC,0.00,WeatherDisplay:10.37,2013-08-15 17:03:00,
2013-08-15 13:08:00,76.6,54.3,30.21,SE,135,5.8,5.8,46,0.00,BKN,SKC,0.00,WeatherDisplay:10.37,2013-08-15 17:08:00,
2013-08-15 13:13:00,76.3,54.0,30.21,South,180,8.1,8.1,46,0.00,BKN,SKC,0.00,WeatherDisplay:10.37,2013-08-15 17:13:00,
2013-08-15 13:18:00,73.0,51.0,30.21,South,180,8.1,8.1,46,0.00,BKN,SKC,0.00,WeatherDisplay:10.37,2013-08-15 17:18:00,
2013-08-15 13:23:00,72.5,50.5,30.21,South,180,8.1,8.1,46,0.00,BKN,SKC,0.00,WeatherDisplay:10.37,2013-08-15 17:23:00,
2013-08-15 13:28:00,71.6,50.9,30.20,South,180,8.1,8.1,48,0.00,BKN,SKC,0.00,WeatherDisplay:10.37,2013-08-15 17:28:00,
2013-08-15 13:33:00,72.1,53.0,30.21,NW,315,6.9,6.9,51,0.00,BKN,SKC,0.00,WeatherDisplay:10.37,2013-08-15 17:33:00,
2013-08-15 13:38:00,73.2,53.5,30.20,South,180,6.9,6.9,50,0.00,BKN,SKC,0.00,WeatherDisplay:10.37,2013-08-15 17:38:00,
2013-08-15 13:44:00,75.0,53.4,30.20,West,270,9.2,9.2,47,0.00,BKN,SKC,0.00,WeatherDisplay:10.37,2013-08-15 17:44:00,
2013-08-15 13:49:00,75.9,53.0,30.20,NW,315,12.7,12.7,45,0.00,BKN,SKC,0.00,WeatherDisplay:10.37,2013-08-15 17:49:00,
2013-08-15 13:54:00,76.5,52.9,30.20,SW,225,5.8,5.8,44,0.00,BKN,SKC,0.00,WeatherDisplay:10.37,2013-08-15 17:54:00,
2013-08-15 13:59:00,77.0,53.4,30.20,SSW,202,10.4,10.4,44,0.00,BKN,SKC,0.00,WeatherDisplay:10.37,2013-08-15 17:59:00,
2013-08-15 14:04:00,77.0,53.4,30.20,SW,225,6.9,6.9,44,0.00,BKN,SKC,0.00,WeatherDisplay:10.37,2013-08-15 18:04:00,
2013-08-15 14:09:00,77.5,53.9,30.20,NW,315,3.5,3.5,44,0.00,BKN,SKC,0.00,WeatherDisplay:10.37,2013-08-15 18:09:00,
2013-08-15 14:14:00,76.1,51.3,30.19,West,270,9.2,9.2,42,0.00,SCT,SKC,0.00,WeatherDisplay:10.37,2013-08-15 18:14:00,
2013-08-15 14:20:00,76.1,52.6,30.20,West,270,6.9,6.9,44,0.00,SCT,SKC,0.00,WeatherDisplay:10.37,2013-08-15 18:20:00,
2013-08-15 14:27:00,77.0,52.8,30.19,South,180,8.1,8.1,43,0.00,SCT,SKC,0.00,WeatherDisplay:10.37,2013-08-15 18:27:00,
2013-08-15 14:32:00,76.6,53.1,30.19,South,180,12.7,12.7,44,0.00,SCT,SKC,0.00,WeatherDisplay:10.37,2013-08-15 18:32:00,
2013-08-15 14:37:00,76.5,52.9,30.19,South,180,9.2,9.2,44,0.00,SCT,SKC,0.00,WeatherDisplay:10.37,2013-08-15 18:37:00,
2013-08-15 14:43:00,75.4,51.9,30.19,South,180,6.9,6.9,44,0.00,SCT,SKC,0.00,WeatherDisplay:10.37,2013-08-15 18:43:00,
2013-08-15 14:48:00,76.5,52.9,30.19,West,270,10.4,10.4,44,0.00,SCT,SKC,0.00,WeatherDisplay:10.37,2013-08-15 18:48:00,
2013-08-15 14:54:00,76.8,53.3,30.19,SW,225,12.7,12.7,44,0.00,SCT,SKC,0.00,WeatherDisplay:10.37,2013-08-15 18:54:00,
2013-08-15 14:59:00,76.8,53.9,30.19,SW,225,18.4,18.4,45,0.00,SCT,SKC,0.00,WeatherDisplay:10.37,2013-08-15 18:59:00,
2013-08-15 15:05:00,77.4,53.7,30.19,South,180,6.0,6.0,44,0.00,SCT,SKC,0.00,WeatherDisplay:10.37,2013-08-15 19:05:00,
2013-08-15 15:10:00,77.4,53.1,30.19,West,270,10.4,10.4,43,0.00,SCT,SKC,0.00,WeatherDisplay:10.37,2013-08-15 19:10:00,
2013-08-15 15:15:00,75.6,52.1,30.19,NW,315,15.0,15.0,44,0.00,SCT,SKC,0.00,WeatherDisplay:10.37,2013-08-15 19:15:00,
2013-08-15 15:20:00,75.4,53.2,30.19,WNW,292,8.1,8.1,46,0.00,SCT,SKC,0.00,WeatherDisplay:10.37,2013-08-15 19:20:00,
2013-08-15 15:25:00,74.3,52.8,30.19,West,270,8.1,8.3,47,0.00,SCT,SKC,0.00,WeatherDisplay:10.37,2013-08-15 19:25:00,
2013-08-15 15:31:00,73.6,52.1,30.19,SE,135,9.2,9.2,47,0.00,SCT,SKC,0.00,WeatherDisplay:10.37,2013-08-15 19:31:00,
2013-08-15 15:36:00,73.4,51.9,30.18,South,180,15.0,15.0,47,0.00,SCT,SKC,0.00,WeatherDisplay:10.37,2013-08-15 19:36:00,
2013-08-15 15:41:00,73.2,52.9,30.19,SW,225,5.8,5.8,49,0.00,SCT,SKC,0.00,WeatherDisplay:10.37,2013-08-15 19:41:00,
2013-08-15 15:46:00,73.4,51.9,30.18,NW,315,8.1,8.1,47,0.00,SCT,SKC,0.00,WeatherDisplay:10.37,2013-08-15 19:46:00,
2013-08-15 15:51:00,73.8,52.3,30.18,NW,315,10.4,10.4,47,0.00,SCT,SKC,0.00,WeatherDisplay:10.37,2013-08-15 19:51:00,
2013-08-15 15:56:00,73.6,52.1,30.18,West,270,8.1,8.1,47,0.00,SCT,SKC,0.00,WeatherDisplay:10.37,2013-08-15 19:56:00,
2013-08-15 16:02:00,73.9,53.0,30.18,SW,225,8.1,8.1,48,0.00,SCT,SKC,0.00,WeatherDisplay:10.37,2013-08-15 20:02:00,
2013-08-15 16:08:00,73.6,52.7,30.18,SW,225,5.8,5.8,48,0.00,SCT,SKC,0.00,WeatherDisplay:10.37,2013-08-15 20:08:00,
2013-08-15 16:14:00,73.4,51.9,30.18,East,90,8.1,8.1,47,0.00,SCT,SKC,0.00,WeatherDisplay:10.37,2013-08-15 20:14:00,
2013-08-15 16:19:00,73.0,49.8,30.18,NW,315,11.5,11.5,44,0.00,SCT,SKC,0.00,WeatherDisplay:10.37,2013-08-15 20:19:00,
2013-08-15 16:24:00,72.9,50.9,30.18,South,180,6.9,6.9,46,0.00,SCT,SKC,0.00,WeatherDisplay:10.37,2013-08-15 20:24:00,
2013-08-15 16:31:00,72.5,50.5,30.17,West,270,10.4,10.4,46,0.00,SCT,SKC,0.00,WeatherDisplay:10.37,2013-08-15 20:31:00,
2013-08-15 16:36:00,72.5,50.5,30.18,SW,225,12.7,12.7,46,0.00,SCT,SKC,0.00,WeatherDisplay:10.37,2013-08-15 20:36:00,
2013-08-15 16:41:00,72.5,51.1,30.18,NW,315,9.2,9.2,47,0.00,SCT,SKC,0.00,WeatherDisplay:10.37,2013-08-15 20:41:00,
2013-08-15 16:46:00,72.1,50.8,30.17,SE,135,12.7,12.7,47,0.00,SCT,SKC,0.00,WeatherDisplay:10.37,2013-08-15 20:46:00,
2013-08-15 16:51:00,72.1,51.9,30.17,SE,135,8.1,8.1,49,0.00,SCT,SKC,0.00,WeatherDisplay:10.37,2013-08-15 20:51:00,
2013-08-15 16:56:00,72.3,51.5,30.17,SW,225,8.1,8.1,48,0.00,SCT,SKC,0.00,WeatherDisplay:10.37,2013-08-15 20:56:00,
2013-08-15 17:02:00,72.0,51.8,30.17,NW,315,5.8,5.8,49,0.00,SCT,SKC,0.00,WeatherDisplay:10.37,2013-08-15 21:02:00,
2013-08-15 17:07:00,72.0,52.8,30.17,East,90,6.9,6.9,51,0.00,SCT,SKC,0.00,WeatherDisplay:10.37,2013-08-15 21:07:00,
2013-08-15 17:12:00,71.8,52.1,30.18,SW,225,10.4,10.4,50,0.00,SCT,SKC,0.00,WeatherDisplay:10.37,2013-08-15 21:12:00,
2013-08-15 17:17:00,71.4,51.3,30.17,WNW,292,10.4,10.4,49,0.00,SCT,SKC,0.00,WeatherDisplay:10.37,2013-08-15 21:17:00,
2013-08-15 17:22:00,71.4,51.3,30.17,NNW,338,10.4,10.4,49,0.00,SCT,SKC,0.00,WeatherDisplay:10.37,2013-08-15 21:22:00,
2013-08-15 17:27:00,71.6,50.9,30.17,NW,315,4.6,4.6,48,0.00,SCT,SKC,0.00,WeatherDisplay:10.37,2013-08-15 21:27:00,
2013-08-15 17:32:00,71.6,52.0,30.17,SW,225,13.0,13.0,50,0.00,SCT,SKC,0.00,WeatherDisplay:10.37,2013-08-15 21:32:00,
2013-08-15 17:37:00,72.1,50.8,30.17,SW,225,9.2,9.2,47,0.00,SCT,SKC,0.00,WeatherDisplay:10.37,2013-08-15 21:37:00,
2013-08-15 17:42:00,71.6,50.9,30.17,SW,225,10.4,10.4,48,0.00,SCT,SKC,0.00,WeatherDisplay:10.37,2013-08-15 21:42:00,
2013-08-15 17:47:00,71.2,52.2,30.18,SW,225,8.1,8.1,51,0.00,SCT,SKC,0.00,WeatherDisplay:10.37,2013-08-15 21:47:00,
2013-08-15 17:52:00,70.9,52.4,30.17,South,180,4.6,4.6,52,0.00,SCT,SKC,0.00,WeatherDisplay:10.37,2013-08-15 21:52:00,
2013-08-15 17:57:00,70.3,51.9,30.18,SW,225,8.1,8.1,52,0.00,SCT,SKC,0.00,WeatherDisplay:10.37,2013-08-15 21:57:00,
2013-08-15 18:03:00,70.2,52.2,30.18,North,0,2.3,2.3,53,0.00,SCT,SKC,0.00,WeatherDisplay:10.37,2013-08-15 22:03:00,
2013-08-15 18:08:00,70.0,52.1,30.18,South,180,6.9,6.9,53,0.00,SCT,SKC,0.00,WeatherDisplay:10.37,2013-08-15 22:08:00,
2013-08-15 18:13:00,69.6,52.2,30.18,South,180,5.8,5.8,54,0.00,SCT,SKC,0.00,WeatherDisplay:10.37,2013-08-15 22:13:00,
2013-08-15 18:18:00,69.6,52.7,30.18,West,270,4.6,4.6,55,0.00,SCT,SKC,0.00,WeatherDisplay:10.37,2013-08-15 22:18:00,
2013-08-15 18:23:00,69.4,52.6,30.18,SW,225,11.5,11.5,55,0.00,SCT,SKC,0.00,WeatherDisplay:10.37,2013-08-15 22:23:00,
2013-08-15 18:28:00,69.3,51.9,30.18,South,180,9.2,9.2,54,0.00,SCT,SKC,0.00,WeatherDisplay:10.37,2013-08-15 22:28:00,
2013-08-15 18:33:00,69.1,52.2,30.18,West,270,8.1,8.1,55,0.00,SCT,SKC,0.00,WeatherDisplay:10.37,2013-08-15 22:33:00,
2013-08-15 18:38:00,69.1,52.7,30.18,SW,225,10.4,10.4,56,0.00,SCT,SKC,0.00,WeatherDisplay:10.37,2013-08-15 22:38:00,
2013-08-15 18:43:00,68.9,52.6,30.18,SW,225,6.9,6.9,56,0.00,SCT,SKC,0.00,WeatherDisplay:10.37,2013-08-15 22:43:00,
2013-08-15 18:48:00,68.9,53.5,30.18,West,270,8.1,8.1,58,0.00,SCT,SKC,0.00,WeatherDisplay:10.37,2013-08-15 22:48:00,
2013-08-15 18:53:00,68.7,53.3,30.18,South,180,12.7,12.7,58,0.00,SCT,SKC,0.00,WeatherDisplay:10.37,2013-08-15 22:53:00,
2013-08-15 18:58:00,68.7,52.9,30.18,SW,225,5.8,5.8,57,0.00,SCT,SKC,0.00,WeatherDisplay:10.37,2013-08-15 22:58:00,
2013-08-15 19:03:00,68.5,52.7,30.18,West,270,6.9,6.9,57,0.00,SCT,SKC,0.00,WeatherDisplay:10.37,2013-08-15 23:03:00,
2013-08-15 19:08:00,68.4,52.5,30.18,West,270,4.6,4.6,57,0.00,SCT,SKC,0.00,WeatherDisplay:10.37,2013-08-15 23:08:00,
2013-08-15 19:13:00,68.4,52.5,30.18,SE,135,13.8,13.8,57,0.00,SCT,SKC,0.00,WeatherDisplay:10.37,2013-08-15 23:13:00,
2013-08-15 19:18:00,68.2,52.8,30.18,South,180,8.1,8.1,58,0.00,SCT,SKC,0.00,WeatherDisplay:10.37,2013-08-15 23:18:00,
2013-08-15 19:23:00,68.0,52.7,30.18,West,270,2.3,2.3,58,0.00,SCT,SKC,0.00,WeatherDisplay:10.37,2013-08-15 23:23:00,
2013-08-15 19:28:00,67.8,53.4,30.18,North,0,3.5,3.5,60,0.00,SCT,SKC,0.00,WeatherDisplay:10.37,2013-08-15 23:28:00,
2013-08-15 19:33:00,67.5,53.1,30.19,SE,135,3.5,3.5,60,0.00,SCT,SKC,0.00,WeatherDisplay:10.37,2013-08-15 23:33:00,
2013-08-15 19:38:00,67.3,53.4,30.19,NW,315,2.3,2.3,61,0.00,SCT,SKC,0.00,WeatherDisplay:10.37,2013-08-15 23:38:00,
2013-08-15 19:43:00,67.1,53.2,30.19,South,180,1.2,0.0,61,0.00,SCT,SKC,0.00,WeatherDisplay:10.37,2013-08-15 23:43:00,
2013-08-15 19:48:00,66.7,52.9,30.19,East,90,4.6,4.6,61,0.00,SCT,SKC,0.00,WeatherDisplay:10.37,2013-08-15 23:48:00,
2013-08-15 19:53:00,66.6,53.1,30.19,SW,225,3.5,3.5,62,0.00,SCT,SKC,0.00,WeatherDisplay:10.37,2013-08-15 23:53:00,
2013-08-15 19:58:00,66.4,53.0,30.19,NW,315,3.5,3.5,62,0.00,SCT,SKC,0.00,WeatherDisplay:10.37,2013-08-15 23:58:00,
2013-08-15 20:04:00,66.0,53.1,30.19,East,90,1.2,0.0,63,0.00,SCT,SKC,0.00,WeatherDisplay:10.37,2013-08-16 00:04:00,
2013-08-15 20:09:00,65.8,52.9,30.19,West,270,3.5,3.5,63,0.00,SCT,SKC,0.00,WeatherDisplay:10.37,2013-08-16 00:09:00,
2013-08-15 20:14:00,65.5,52.5,30.20,SW,225,3.5,3.5,63,0.00,SCT,SKC,0.00,WeatherDisplay:10.37,2013-08-16 00:14:00,
2013-08-15 20:19:00,65.3,52.8,30.20,South,180,2.3,2.3,64,0.00,SCT,SKC,0.00,WeatherDisplay:10.37,2013-08-16 00:19:00,
2013-08-15 20:24:00,64.9,52.5,30.20,South,180,1.2,0.0,64,0.00,SCT,SKC,0.00,WeatherDisplay:10.37,2013-08-16 00:24:00,
2013-08-15 20:29:00,64.8,52.7,30.20,SW,225,1.2,0.0,65,0.00,SCT,SKC,0.00,WeatherDisplay:10.37,2013-08-16 00:29:00,
2013-08-15 20:34:00,64.2,52.2,30.20,SE,135,1.2,0.0,65,0.00,SCT,SKC,0.00,WeatherDisplay:10.37,2013-08-16 00:34:00,
2013-08-15 20:39:00,63.9,52.3,30.20,South,180,1.2,1.2,66,0.00,SCT,SKC,0.00,WeatherDisplay:10.37,2013-08-16 00:39:00,
2013-08-15 20:44:00,63.7,52.1,30.20,South,180,1.2,1.2,66,0.00,SCT,SKC,0.00,WeatherDisplay:10.37,2013-08-16 00:44:00,
2013-08-15 20:49:00,63.7,52.5,30.20,SW,225,3.5,3.5,67,0.00,SCT,SKC,0.00,WeatherDisplay:10.37,2013-08-16 00:49:00,
2013-08-15 20:54:00,63.7,52.5,30.20,South,180,1.2,0.0,67,0.00,SCT,SKC,0.00,WeatherDisplay:10.37,2013-08-16 00:54:00,
2013-08-15 20:59:00,63.5,52.3,30.20,South,180,2.3,2.3,67,0.00,SCT,SKC,0.00,WeatherDisplay:10.37,2013-08-16 00:59:00,
2013-08-15 21:05:00,63.3,52.6,30.20,South,180,1.2,1.2,68,0.00,SCT,SKC,0.00,WeatherDisplay:10.37,2013-08-16 01:05:00,
2013-08-15 21:10:00,63.3,52.6,30.20,West,270,2.3,2.3,68,0.00,SCT,SKC,0.00,WeatherDisplay:10.37,2013-08-16 01:10:00,
2013-08-15 21:15:00,63.1,52.8,30.21,South,180,1.2,0.0,69,0.00,SCT,SKC,0.00,WeatherDisplay:10.37,2013-08-16 01:15:00,
2013-08-15 21:20:00,62.8,52.5,30.21,North,0,1.2,0.0,69,0.00,SCT,SKC,0.00,WeatherDisplay:10.37,2013-08-16 01:20:00,
2013-08-15 21:25:00,62.6,52.3,30.21,South,180,1.2,0.0,69,0.00,SCT,SKC,0.00,WeatherDisplay:10.37,2013-08-16 01:25:00,
2013-08-15 21:30:00,62.6,52.7,30.21,SE,135,1.2,0.0,70,0.00,SCT,SKC,0.00,WeatherDisplay:10.37,2013-08-16 01:30:00,
2013-08-15 21:36:00,62.4,52.9,30.21,NW,315,3.5,0.0,71,0.00,SCT,SKC,0.00,WeatherDisplay:10.37,2013-08-16 01:36:00,
2013-08-15 21:41:00,62.2,53.1,30.21,East,90,1.2,0.0,72,0.00,SCT,SKC,0.00,WeatherDisplay:10.37,2013-08-16 01:41:00,
2013-08-15 21:46:00,62.1,52.9,30.21,SW,225,3.5,0.0,72,0.00,SCT,SKC,0.00,WeatherDisplay:10.37,2013-08-16 01:46:00,
2013-08-15 21:51:00,62.1,52.9,30.21,SW,225,0.7,0.0,72,0.00,SCT,SKC,0.00,WeatherDisplay:10.37,2013-08-16 01:51:00,
2013-08-15 21:56:00,61.9,52.8,30.21,South,180,2.3,0.0,72,0.00,SCT,SKC,0.00,WeatherDisplay:10.37,2013-08-16 01:56:00,
2013-08-15 22:01:00,61.9,53.1,30.21,SW,225,1.2,1.2,73,0.00,SCT,SKC,0.00,WeatherDisplay:10.37,2013-08-16 02:01:00,
2013-08-15 22:06:00,61.7,53.0,30.21,West,270,1.2,0.0,73,0.00,SCT,SKC,0.00,WeatherDisplay:10.37,2013-08-16 02:06:00,
2013-08-15 22:11:00,61.7,53.0,30.21,West,270,1.2,0.0,73,0.00,SCT,SKC,0.00,WeatherDisplay:10.37,2013-08-16 02:11:00,
2013-08-15 22:16:00,61.5,52.8,30.22,West,270,1.2,0.0,73,0.00,SCT,SKC,0.00,WeatherDisplay:10.37,2013-08-16 02:16:00,
2013-08-15 22:21:00,61.5,52.8,30.22,South,180,1.2,1.6,73,0.00,SCT,SKC,0.00,WeatherDisplay:10.37,2013-08-16 02:21:00,
2013-08-15 22:26:00,61.3,52.6,30.22,SW,225,2.3,0.0,73,0.00,SCT,SKC,0.00,WeatherDisplay:10.37,2013-08-16 02:26:00,
2013-08-15 22:31:00,61.2,52.4,30.21,SE,135,0.0,0.0,73,0.00,SCT,SKC,0.00,WeatherDisplay:10.37,2013-08-16 02:31:00,
2013-08-15 22:36:00,61.2,52.4,30.21,North,0,2.3,2.3,73,0.00,SCT,SKC,0.00,WeatherDisplay:10.37,2013-08-16 02:36:00,
2013-08-15 22:41:00,61.0,52.3,30.21,SE,135,1.2,0.0,73,0.00,SCT,SKC,0.00,WeatherDisplay:10.37,2013-08-16 02:41:00,
2013-08-15 22:46:00,61.0,52.3,30.21,SE,135,1.2,1.2,73,0.00,SCT,SKC,0.00,WeatherDisplay:10.37,2013-08-16 02:46:00,
2013-08-15 22:51:00,60.8,52.5,30.21,SW,225,3.5,0.0,74,0.00,SCT,SKC,0.00,WeatherDisplay:10.37,2013-08-16 02:51:00,
2013-08-15 22:56:00,60.8,52.5,30.22,South,180,1.2,1.2,74,0.00,SCT,SKC,0.00,WeatherDisplay:10.37,2013-08-16 02:56:00,
2013-08-15 23:01:00,60.8,52.5,30.21,West,270,1.2,0.0,74,0.00,SCT,SKC,0.00,WeatherDisplay:10.37,2013-08-16 03:01:00,
2013-08-15 23:06:00,60.6,52.6,30.22,West,270,1.2,0.0,75,0.00,SCT,SKC,0.00,WeatherDisplay:10.37,2013-08-16 03:06:00,
2013-08-15 23:11:00,60.4,52.8,30.22,South,180,2.3,2.3,76,0.00,SCT,SKC,0.00,WeatherDisplay:10.37,2013-08-16 03:11:00,
2013-08-15 23:16:00,60.4,52.8,30.21,South,180,1.2,0.0,76,0.00,SCT,SKC,0.00,WeatherDisplay:10.37,2013-08-16 03:16:00,
2013-08-15 23:21:00,60.4,52.8,30.22,SE,135,2.3,0.0,76,0.00,SCT,SKC,0.00,WeatherDisplay:10.37,2013-08-16 03:21:00,
2013-08-15 23:26:00,60.3,52.7,30.22,SW,225,1.2,1.2,76,0.00,SCT,SKC,0.00,WeatherDisplay:10.37,2013-08-16 03:26:00,
2013-08-15 23:31:00,60.1,52.5,30.22,SW,225,1.2,0.0,76,0.00,SCT,SKC,0.00,WeatherDisplay:10.37,2013-08-16 03:31:00,
2013-08-15 23:36:00,59.7,52.5,30.22,South,180,1.2,0.0,77,0.00,SCT,SKC,0.00,WeatherDisplay:10.37,2013-08-16 03:36:00,
2013-08-15 23:41:00,59.5,52.7,30.22,West,270,1.2,0.0,78,0.00,SCT,SKC,0.00,WeatherDisplay:10.37,2013-08-16 03:41:00,
2013-08-15 23:46:00,59.4,52.5,30.22,West,270,1.2,0.0,78,0.00,SCT,SKC,0.00,WeatherDisplay:10.37,2013-08-16 03:46:00,
2013-08-15 23:51:00,59.2,52.3,30.22,West,270,0.0,0.0,78,0.00,SCT,SKC,0.00,WeatherDisplay:10.37,2013-08-16 03:51:00,
2013-08-15 23:56:00,59.2,52.3,30.22,West,270,1.2,0.0,78,0.00,SCT,SKC,0.00,WeatherDisplay:10.37,2013-08-16 03:56:00,
2013-08-15 23:57:00,59.2,52.7,30.22,West,270,1.2,0.0,79,0.00,SCT,SKC,0.00,WeatherDisplay:10.37,2013-08-16 03:57:00,